This demonstration page uses our WeatherBlox Daily Observations layout. Learn more.

Left ArrowRight Arrow

Hourly Observations for June 26, 2017

Temp ( °F °C ) Dew Point ( °F °C ) Humidity (%) Winds ( mph kmh ) Pressure ( in mb ) Visibility ( mi km ) Precip ( " mm )
12:15 am 00:15 Clear 58 14.5 51 10.5 77 77 S 7 11 30.21 1023 10 16.0934 0 0
12:35 am 00:35 Clear 57 13.9 52 11.1 83 83 SW 7 11 30.21 1023 10 16.0934 0 0
12:55 am 00:55 Clear 57 13.7 53 11.8 88 88 SSW 7 11 30.21 1023 10 16.0934 0 0
1:15 am 01:15 Clear 57 14 54 12.1 88 88 SSW 8 13 30.21 1023 10 16.0934 0 0
1:35 am 01:35 Clear 58 14.3 54 12.2 87 87 SW 8 13 30.21 1023 10 16.0934 0 0
1:55 am 01:55 Clear 57 14 54 12 88 88 SW 6 9 30.21 1023 10 16.0934 0 0
2:15 am 02:15 Clear 56 13.6 54 12 90 90 SW 6 9 30.21 1023 10 16.0934 0 0
2:35 am 02:35 Clear 56 13.2 53 11.9 92 92 SW 6 9 30.21 1023 10 16.0934 0 0
2:55 am 02:55 Clear 55 13 53 11.7 92 92 SW 5 7 30.21 1023 10 16.0934 0 0
3:15 am 03:15 Clear 55 12.6 53 11.5 93 93 WSW 5 7 30.21 1023 10 16.0934 0 0
3:35 am 03:35 Clear 55 13 53 11.9 93 93 SW 7 11 30.21 1023 10 16.0934 0 0
3:55 am 03:55 Partly Cloudy 55 13 53 11.8 92 92 SW 8 13 30.21 1023 10 16.0934 0 0
4:15 am 04:15 Mostly Cloudy 55 12.7 53 11.6 93 93 SW 8 13 30.18 1022 10 16.0934 0 0
4:35 am 04:35 Mostly Cloudy 56 13.3 54 12.1 93 93 W 9 15 30.18 1022 10 16.0934 0 0
4:55 am 04:55 Partly Cloudy 56 13.5 54 12 91 91 WSW 7 11 30.18 1022 10 16.0934 0 0
5:15 am 05:15 Clear 55 13 53 11.8 92 92 W 8 13 30.18 1022 10 16.0934 0 0
5:35 am 05:35 Clear 55 12.7 53 11.7 94 94 W 8 13 30.18 1022 10 16.0934 0 0
5:55 am 05:55 Clear 55 12.5 53 11.6 94 94 W 5 7 30.21 1023 7 11.26538 0 0
6:15 am 06:15 Partly Cloudy 54 12.3 53 11.5 95 95 W 5 7 30.21 1023 7 11.26538 0 0
6:35 am 06:35 Partly Cloudy 55 12.8 54 12 95 95 WSW 6 9 30.18 1022 7 11.26538 0 0
6:55 am 06:55 Partly Cloudy 57 13.9 55 12.7 93 93 WSW 8 13 30.18 1022 10 16.0934 0 0
7:15 am 07:15 Partly Cloudy 58 14.6 56 13.2 91 91 W 8 13 30.15 1021 10 16.0934 0 0
7:35 am 07:35 Partly Cloudy 58 14.6 56 13.3 92 92 W 8 13 30.18 1022 10 16.0934 0 0
7:55 am 07:55 Mostly Cloudy 59 15 56 13.5 91 91 WNW 6 9 30.18 1022 10 16.0934 0 0
8:15 am 08:15 Partly Cloudy 60 15.6 57 13.9 90 90 W 6 9 30.18 1022 10 16.0934 0 0
8:35 am 08:35 Partly Cloudy 62 16.9 58 14.2 84 84 W 6 9 30.15 1021 10 16.0934 0 0
8:55 am 08:55 Partly Cloudy 65 18.5 57 13.9 75 75 WSW 7 11 30.12 1020 10 16.0934 0 0
9:15 am 09:15 Cloudy 65 18.2 56 13.6 75 75 W 6 9 30.12 1020 10 16.0934 0 0
9:35 am 09:35 Mostly Cloudy 64 17.9 56 13.6 76 76 W 5 7 30.12 1020 10 16.0934 0 0
9:55 am 09:55 Cloudy 65 18.3 57 13.9 76 76 WSW 5 7 30.12 1020 10 16.0934 0 0
10:15 am 10:15 Mostly Cloudy 65 18.4 58 14.2 77 77 W 7 11 30.12 1020 10 16.0934 0 0
10:35 am 10:35 Mostly Cloudy 67 19.5 59 15 75 75 WSW 10 17 30.12 1020 10 16.0934 0 0
10:55 am 10:55 Mostly Cloudy 67 19.4 59 15.1 76 76 WSW 8 13 30.12 1020 10 16.0934 0 0
11:15 am 11:15 Partly Cloudy 70 21 59 15.1 69 69 W 8 13 30.06 1018 10 16.0934 0 0
11:35 am 11:35 Partly Cloudy 68 20.1 58 14.7 71 71 W 7 11 30.09 1019 10 16.0934 0 0
11:55 am 11:55 Mostly Cloudy 68 20 58 14.6 71 71 Calm 30.09 1019 10 16.0934 0 0
12:15 pm 12:15 Mostly Cloudy 70 21.2 59 15.1 68 68 N 6 9 30.06 1018 10 16.0934 0 0
12:35 pm 12:35 Mostly Cloudy 70 20.9 59 15 69 69 NNW 3 6 30.09 1019 10 16.0934 0 0
12:55 pm 12:55 Cloudy 71 21.5 60 15.5 69 69 N 8 13 30.06 1018 10 16.0934 0 0
1:15 pm 13:15 Partly Cloudy 73 22.8 59 15 62 62 E 7 11 30.03 1017 10 16.0934 0 0
1:35 pm 13:35 Partly Cloudy 71 21.6 58 14.6 65 65 E 6 9 30.03 1017 10 16.0934 0 0
1:55 pm 13:55 Mostly Cloudy 71 21.5 57 13.7 61 61 N 3 6 30.06 1018 10 16.0934 0 0
2:15 pm 14:15 Cloudy with Light Rain 67 19.2 61 16 82 82 NNE 16 26 30.09 1019 7 11.26538 0.02 0.508
2:35 pm 14:35 Cloudy with Light Rain 65 18.6 62 16.6 88 88 NE 8 13 30.06 1018 10 16.0934 0.02 0.508
2:55 pm 14:55 Cloudy 67 19.5 63 17.3 87 87 ENE 7 11 30.06 1018 10 16.0934 0.03 0.762
3:15 pm 15:15 Mostly Cloudy 69 20.6 63 17.2 81 81 NE 6 9 30.06 1018 10 16.0934 0 0
3:35 pm 15:35 Mostly Cloudy 69 20.5 59 15.1 71 71 NNE 6 9 30.06 1018 10 16.0934 0 0
3:55 pm 15:55 Mostly Cloudy 71 21.7 57 14 62 62 N 5 7 30.03 1017 10 16.0934 0 0
4:15 pm 16:15 Partly Cloudy 71 21.7 57 14.1 62 62 Calm 30.03 1017 10 16.0934 0 0
4:35 pm 16:35 Partly Cloudy 73 22.7 59 15 62 62 NE 8 13 30.03 1017 10 16.0934 0 0
4:55 pm 16:55 Sunny 74 23.2 60 15.3 61 61 NE 7 11 30.03 1017 10 16.0934 0 0
5:15 pm 17:15 Partly Cloudy 74 23.6 60 15.6 61 61 NE 9 15 30.03 1017 10 16.0934 0 0
5:35 pm 17:35 Mostly Cloudy 75 23.8 59 14.8 57 57 NE 7 11 30.03 1017 10 16.0934 0 0
5:55 pm 17:55 Mostly Cloudy 76 24.3 57 14 53 53 ENE 8 13 30.03 1017 7 11.26538 0 0
6:15 pm 18:15 Cloudy 76 24.4 56 13.4 50 50 ENE 7 11 29.97 1015 10 16.0934 0 0
6:35 pm 18:35 Mostly Cloudy 74 23.6 55 12.6 50 50 ENE 10 17 30 1016 10 16.0934 0 0
6:55 pm 18:55 Partly Cloudy 76 24.4 53 11.9 46 46 ENE 13 20 29.97 1015 10 16.0934 0 0
7:15 pm 19:15 Partly Cloudy 75 24 53 11.9 47 47 ENE 10 17 30.03 1017 10 16.0934 0 0
7:35 pm 19:35 Sunny 75 24 53 11.6 46 46 ENE 8 13 30.03 1017 10 16.0934 0 0
7:55 pm 19:55 Sunny 74 23.3 52 11.2 47 47 ENE 12 19 30.03 1017 10 16.0934 0 0
8:15 pm 20:15 Sunny 73 22.5 54 12.1 52 52 ENE 8 13 30.03 1017 10 16.0934 0 0
8:35 pm 20:35 Sunny 70 21.2 54 12.4 57 57 ENE 8 13 30.03 1017 10 16.0934 0 0
8:55 pm 20:55 Sunny 67 19.6 55 12.6 64 64 ENE 8 13 30.06 1018 10 16.0934 0 0
9:15 pm 21:15 Clear 65 18.5 55 12.5 68 68 ENE 8 13 30.06 1018 10 16.0934 0 0
9:35 pm 21:35 Clear 64 17.5 55 12.5 73 73 ENE 8 13 30.06 1018 10 16.0934 0 0
9:55 pm 21:55 Clear 63 17 54 12.4 74 74 ENE 8 13 30.09 1019 10 16.0934 0 0
10:15 pm 22:15 Clear 63 17 54 12 73 73 E 9 15 30.09 1019 10 16.0934 0 0
10:35 pm 22:35 Clear 61 16.1 53 11.9 76 76 ENE 9 15 30.09 1019 10 16.0934 0 0
10:55 pm 22:55 Clear 61 16.1 54 12 77 77 E 9 15 30.09 1019 10 16.0934 0 0
11:15 pm 23:15 Clear 60 15.8 54 12.3 80 80 E 7 11 30.09 1019 10 16.0934 0 0
11:35 pm 23:35 Clear 60 15.5 56 13.1 86 86 E 9 15 30.09 1019 10 16.0934 0 0
11:55 pm 23:55 Clear 60 15.3 57 13.7 90 90 E 9 15 30.09 1019 10 16.0934 0 0

Powered by AerisWeather